Location: Stoke Bliss
(52.2667°N, 2.5167°W)
Time: 07:47:26
(UTC+00:00)

Envisat - Pass Details

Date: 05 December 2021
Orbit: 764 x 766 km, 98.2° (Epoch: 17 January)

Event Time Altitude Azimuth Distance (km) Brightness Sun altitude
Rises 04:52:34 0° 18° (NNE) 3,247 6.4 -27.8°
Reaches altitude 10° 04:54:58 10° 24° (NNE) 2,316 5.7 -27.5°
Maximum altitude 04:59:55 49° 99° (E) 986 3.9 -26.7°
Drops below altitude 10° 05:04:49 10° 174° (S) 2,298 5.6 -26.0°
Sets 05:07:11 0° 180° (S) 3,219 6.3 -25.6°
